CZ-4C DEB, 40114

Orbit data source: Space-Track

CZ-4C DEB, 40114 is space debris in LEO originally from a launch on Sat, 09 Aug 2014 UTC launched from the Jiuquan Satellite Launch Center, China (JSC). Debris objects in space refer to the collection of defunct objects orbiting the Earth. Examples of debris include non-operational satellites, rocket bodies, and fragments generated from explosions, collisions, or faulty payload assembly.

Loading next visibility...
Identifier
40114, 2014-047F
Orbit
LEO
Country
Flag of CNCN / PRC
Related business
Manufacturer
CAST
Mission
Spacecraft
Bus & Motor
Unknown
Mass
Unknown
Launch date (UTC)
2014-08-09 (12 years ago)
Launch vehicle
Unknown
Launch site
Jiuquan Satellite Launch Center, China (JSC)
Object type
Payload
Rocket body
Debris
Shape & HBR
Unknown shape, 2.2 m
Radar Cross Section
Large (>1 m²)

Expand to show TLE details & history
Last TLE update: 8 hours ago

TLE from 8 hours ago
0 CZ-4C DEB
1 40114U 14047F   26104.03139447 -.00000053  00000-0  41350-4 0  9996
2 40114  63.3804 212.1996 0385129  14.7440 346.4450 13.44449855573282
Epoch: 2026-04-14T00:45Z
TLE epoch observation values (Epoch: 2026-04-14T00:45:12.482Z)
Latitude
-0°
Longitude
-1.31589°
Altitude
815.421 km
Speed
7.584 km/s
True Right ascension
14h 08m 47s
True Declination
0° 00' 00"
Sunlit
Object was in full shadow at epoch
Visualization orbit readout
Latitude
Unknown
Longitude
Unknown
Altitude
Unknown
Speed
Unknown
Apparent Right ascension
Unknown
Apparent Declination
Unknown
Sunlit
N/A
Visualization observer readout
Local Sidereal Time
15:27:00
Azimuth
Unknown
Elevation
Unknown
Doppler factor
Unknown
Orbital elements
Apogee altitude
1,379.259 km
Perigee altitude
803.898 km
Semi-major axis
7,469.716 km
Eccentricity
0.03851
Inclination
63.3804°
RAAN
212.1996°
Arg. of periapsis
14.744°
True anomaly
345.36001°
Mean anomaly
346.445°
Eccentric anomaly
345.90772°
Mean motion
3.36192 °/min
Orbital period
107.08 mins
BSTAR
0.00004135
Loading maneuver chart data...
Computing Atmospheric mass density...
Loading historical data...
Loading historical data...
Loading historical data...
Loading historical data...
Loading historical data...
Loading historical data...
Loading historical data...

Documentation

Showing up to 5 results
|